Regional Weather Roundup
Issued by NWS

Home | Current Version | Previous Version | Graphics & Text | Print | Product List | Glossary On
Versions: 1 2 3 4 5 6 7 8 9 10 11 12 13 14 15 16 17 18 19 20 21 22 23 24 25 26 27 28 29 30 31 32 33 34 35 36 37 38 39 40 41 42 43 44 45 46 47 48 49
000
ASUS45 KSLC 200410
RWRUT

UTAH REGIONAL WEATHER ROUNDUP
NATIONAL WEATHER SERVICE SALT LAKE CITY UT
1000 PM MDT FRI SEP 19 2014

UTZ001>011-023>025-200500-

NORTHERN UTAH

CITY           SKY/WX    TMP DP  RH WIND       PRES   REMARKS
HILL AFB       CLEAR     69  43  39 SE9       30.09R
LOGAN          CLEAR     63  53  70 CALM      30.10R
OGDEN          CLEAR     66  45  46 S6        30.07R
PROVO AIRPORT  CLEAR     72  52  49 N8        30.09R
SALT LAKE CITY PTCLDY    67  55  65 E3        30.06R
VERNAL         PTCLDY    67  49  52 MISG      30.10R
WENDOVER       CLEAR     70  43  37 W6        30.07R
HEBER CITY     CLEAR     63  50  63 CALM      30.15R
WEST JORDAN    CLEAR     66  45  45 E3        30.09R

$$

UTZ012>022-026-027-200500-

SOUTHERN UTAH

CITY           SKY/WX    TMP DP  RH WIND       PRES   REMARKS
BRYCE CANYON   CLEAR     55  46  71 W8        30.26R
CEDAR CITY     PTCLDY    69  45  41 SE6       30.10R
MILFORD        CLEAR     69  42  37 N8        30.06R
MOAB/CYNLANDS  CLEAR     71  39  31 CALM      29.98R
PRICE          CLEAR     69  43  38 N3        30.12R
ST GEORGE      MOCLDY    82  46  28 CALM      29.92R
KANAB            N/A     75  46  35 N8        30.07R

$$

REGIONAL REPORTS     COLORADO/ARIZONA

CITY           SKY/WX    TMP DP  RH WIND       PRES   REMARKS
CRAIG, CO      MOCLDY    57  48  72 N3        30.17R
GRAND JUNCTION CLEAR     70  43  37 CALM      30.01R
RIFLE          CLEAR     65  45  48 E3        30.09R
MONTROSE       CLEAR     66  46  48 SE10      30.11R
CORTEZ         CLEAR     63  48  58 NE7       30.10R
PAGE, AZ       PTCLDY    82  49  31 SW5       29.98R
GRAND CANYON   CLEAR     56  55  97 CALM      30.19R
KINGMAN        CLEAR     74  46  36 SW8       29.97R
FLAGSTAFF        N/A     55  53  93 MISG      30.23R

$$

REGIONAL REPORTS    NEVADA/IDAHO/WYOMING

CITY           SKY/WX    TMP DP  RH WIND       PRES   REMARKS
LAS VEGAS, NV  CLEAR     89  31  12 S13       29.82R
ELY            CLEAR     60  35  39 N6        30.16R
ELKO           CLEAR     67  40  37 NE3       30.08R
POCATELLO, ID  CLEAR     62  45  53 S8        30.12R
BURLEY         CLEAR     57  46  66 SW7       30.09R
EVANSTON, WY   CLEAR     60  39  45 N8        30.26R
ROCK SPRINGS   NOT AVBL

$$


USA.gov is the U.S. government's official web portal to all federal, state and local government web resources and services.